Location: Newark
(42.8200°N, 13.1900°E)
Time: 11:32:00
(UTC+00:00)

STARLINK-1273 - Pass Details

Date: 07 April 2020
Orbit: 549 x 550 km, 53.0° (Epoch: 06 June)

Event Time Altitude Azimuth Distance (km) Brightness Sun altitude
Exits shadow 02:27:16 14° 325° (NW) 1,564 5.9 -23.0°
Maximum altitude 02:29:19 19° 1° (N) 1,313 5.9 -22.7°
Drops below altitude 10° 02:32:19 10° 48° (NE) 1,800 7.4 -22.2°
Sets 02:35:03 0° 66° (ENE) 2,692 8.6 -21.8°
